IRIDIUM 121

Last updated on Sun Jun 21 2026 00:03:14 GMT+0000 (Coordinated Universal Time)

1 42812U 17039K 26171.44679271 .00000132 00000+0 40133-4 0 9994 2 42812 86.3972 352.3087 0002163 91.8638 268.2805 14.34218028470295
UTC large
Height (km)
Speed (km/s)
/
Latitude / Longitude
Inclination (degrees)
Orbital Period (minutes)
Azimuth
Elevation
Range (km)
Doppler Factor

Next 0 passes for location: London (51.5072 / 0.1276)

No passes found over London.
IRIDIUM 121